Cloud_Cover
0 0 0 0 20 44 64 80 64 48 44 24 12 8 0 0 0 0 0 0 0 0 0 0 0 0 0 0 0 0 0 0 0 0 20 92 92 92 92 92 92 92 92 92 92 92 92 92 92 92 92 92 92 92 92 76 68 64 56 56 64 68 68 76 68 76 80 92 92
0 0 8 36 56 76 80 88 32 8 0 0 0 0 0 0 0 0 0 0 0 0 0 0 0 0 0 0 0 0 0 0 0 20 48 92 92 92 92 92 92 92 92 92 92 92 92 92 92 92 92 92 92 92 88 68 48 32 24 48 76 80 80 92 92 92 92 92 92
0 0 12 56 64 64 48 44 12 0 0 0 0 0 0 0 0 0 0 0 0 0 0 0 0 0 0 0 20 12 0 0 0 36 80 92 92 92 92 92 92 92 92 92 92 92 92 92 92 92 92 92 88 80 80 88 64 56 64 88 92 92 92 92 92 92 92 92 92
0 0 8 24 24 12 0 0 0 0 0 0 0 0 0 8 0 0 0 0 0 0 0 0 0 12 32 48 48 20 0 20 68 92 92 92 92 92 92 92 92 92 92 92 92 92 92 92 92 88 80 76 76 76 80 80 88 92 92 92 92 92 92 92 92 92 92 92 92
0 0 0 0 0 0 0 8 8 8 8 12 24 36 44 44 24 12 0 0 0 0 20 80 64 56 56 64 48 48 64 92 92 92 92 92 88 92 92 92 92 92 92 92 92 92 92 92 80 80 80 80 92 92 80 68 88 92 92 92 92 92 92 92 92 92 92 92 92
0 0 0 0 0 0 12 32 32 36 48 64 64 48 32 24 12 8 24 80 88 88 88 92 80 80 88 80 76 88 92 92 92 92 92 92 92 92 92 92 92 92 92 92 92 92 92 92 88 88 88 92 92 92 88 76 80 88 92 92 92 92 92 92 92 92 92 92 92
0 0 0 0 24 64 92 92 76 80 92 92 88 56 24 20 48 68 80 88 88 88 92 92 92 92 92 92 92 88 92 92 92 92 92 92 88 88 92 92 92 92 92 92 92 92 92 92 92 92 92 92 92 92 92 92 92 80 76 92 92 92 92 92 92 92 92 92 92
0 0 0 0 32 68 80 48 56 64 76 92 88 68 48 36 64 64 64 92 92 92 92 92 92 92 92 92 92 92 88 80 88 92 92 88 88 92 92 92 92 92 92 92 92 92 92 92 92 92 92 92 92 92 80 64 64 68 80 92 92 80 68 76 76 80 92 92 92
8 20 20 20 32 44 48 44 56 48 44 48 56 56 56 56 68 80 92 92 92 92 92 92 92 92 92 92 92 92 92 92 80 80 80 88 88 92 92 92 92 92 92 92 92 92 92 92 92 88 88 80 64 56 56 56 64 80 92 92 92 68 44 56 56 68 88 92 92
0 36 76 92 88 80 76 80 88 76 56 64 64 64 64 64 88 92 92 92 92 92 92 92 92 92 92 92 92 92 92 92 92 92 92 88 92 92 92 92 92 92 92 92 92 92 92 88 88 80 68 56 44 36 44 64 76 88 92 92 92 68 44 48 68 80 92 92 92
0 44 92 92 92 88 80 88 76 76 80 88 88 88 88 88 92 92 92 92 92 92 92 92 92 92 92 92 92 92 92 92 92 92 88 92 92 92 92 92 92 92 92 92 92 92 88 76 68 64 48 44 44 36 44 64 68 64 68 88 88 88 88 88 92 92 92 92 92
0 36 80 92 92 92 80 68 68 68 68 80 88 92 92 92 92 92 92 92 92 92 92 92 92 92 92 92 92 92 92 92 92 92 92 92 92 92 92 92 92 92 92 92 88 88 76 64 48 44 36 32 36 48 56 56 76 80 76 80 88 92 92 88 88 88 88 76 80
0 20 56 92 92 92 88 80 88 76 68 68 68 80 92 92 92 92 92 92 92 92 92 92 92 92 92 92 92 92 92 92 92 92 92 92 92 92 92 92 92 92 92 92 80 68 68 64 44 32 20 20 44 44 36 36 64 68 68 76 80 88 88 88 80 76 76 68 68
0 24 64 92 80 68 64 76 76 76 80 76 76 80 92 92 92 92 92 92 92 92 92 100 100 92 92 92 92 92 92 92 92 92 92 92 92 92 92 92 92 92 92 92 76 56 48 48 44 32 20 20 56 48 24 24 44 56 68 88 92 88 88 88 88 80 80 76 64
20 32 48 80 64 56 64 76 64 56 56 64 68 76 80 88 92 92 92 92 92 92 92 92 92 92 92 92 92 92 92 92 92 92 92 92 92 92 92 92 92 92 92 92 80 56 36 32 24 12 12 24 64 68 48 36 56 76 92 92 92 92 92 92 92 92 88 76 64
64 68 68 76 76 76 76 64 48 36 36 44 48 56 68 76 88 92 92 92 92 92 92 92 92 92 92 92 92 92 92 92 92 92 92 92 92 92 92 92 92 92 92 92 92 80 56 32 20 20 32 48 64 64 64 56 76 88 88 92 92 92 92 92 88 80 76 76 68
88 92 92 92 92 92 88 68 64 36 20 32 32 44 56 80 88 92 92 92 92 92 92 92 92 92 92 92 92 92 92 92 92 92 92 92 92 92 92 92 92 92 92 92 92 92 88 68 48 48 64 56 56 64 68 68 80 88 92 92 92 92 88 80 64 64 68 76 76
68 80 88 92 92 92 92 88 64 32 24 68 56 36 44 88 92 92 92 92 92 92 92 92 92 92 92 92 92 92 92 92 92 92 92 92 92 92 92 92 92 92 92 92 92 92 92 92 88 80 80 76 76 80 88 88 88 92 92 92 92 88 76 64 64 64 76 88 88
64 64 64 80 92 92 92 88 64 36 36 92 76 56 56 88 88 92 92 92 92 92 92 92 92 92 92 92 92 92 92 92 92 92 92 92 92 92 92 92 92 92 92 92 92 92 92 92 92 92 92 88 92 92 92 92 92 92 92 92 80 68 56 48 68 80 80 88 88
48 56 56 68 88 92 88 68 56 48 64 92 80 80 80 88 88 88 88 92 92 92 92 92 92 92 92 92 92 92 92 92 92 92 92 92 92 92 92 92 92 92 92 92 92 92 92 92 92 92 92 92 92 92 92 92 92 92 92 76 64 48 48 64 80 92 88 76 80
20 20 24 48 80 92 88 76 68 64 76 92 88 88 92 92 88 88 88 92 92 92 92 92 92 92 92 92 92 92 92 92 92 92 92 92 92 92 88 88 92 92 92 92 92 92 92 92 92 92 92 92 92 92 92 92 92 88 76 48 44 44 48 68 88 92 88 64 56
0 0 8 44 80 92 92 92 88 76 68 92 80 68 68 88 80 68 68 92 92 88 92 92 92 92 92 92 88 92 92 92 92 92 92 92 92 92 92 92 92 92 92 92 92 92 92 92 92 92 92 92 92 92 92 92 92 88 68 56 44 44 56 88 92 88 76 64 44
0 0 20 68 88 92 92 80 68 64 64 92 76 64 56 32 48 44 36 76 68 76 76 76 88 88 92 92 88 76 68 76 88 92 92 92 92 92 92 92 92 92 92 92 92 92 92 92 92 92 92 92 92 92 92 92 92 80 68 68 68 76 88 92 92 88 68 48 36
0 20 48 88 92 92 92 92 76 76 88 92 88 76 68 56 56 56 48 48 48 44 44 44 68 68 56 36 48 64 64 48 76 88 88 92 92 92 92 92 92 92 92 92 92 92 92 92 92 92 88 92 92 92 92 92 88 76 76 76 88 88 88 92 92 92 80 68 64
44 56 68 88 88 88 92 92 76 76 80 80 88 88 88 92 88 80 68 64 36 32 36 48 56 64 76 80 68 68 76 76 80 80 80 88 92 92 92 92 92 92 92 92 92 92 92 92 92 92 88 92 92 92 92 92 92 92 92 88 80 80 88 92 92 92 92 88 88
64 68 76 80 80 80 88 92 80 76 80 92 92 92 92 92 92 92 88 64 48 68 88 88 56 44 48 68 80 88 88 88 88 88 88 92 92 92 92 92 92 92 92 92 92 92 92 92 92 92 88 92 92 92 92 92 92 92 92 88 92 92 92 92 92 92 92 92 92
64 76 88 92 80 80 88 80 92 92 92 92 92 92 92 92 92 92 92 92 92 92 92 92 88 64 56 88 88 92 92 92 92 92 92 92 92 92 92 92 92 92 92 92 92 92 92 92 92 92 92 92 92 92 92 92 92 92 92 92 92 92 92 92 92 92 92 92 92
68 76 88 88 80 80 80 80 76 76 76 76 88 92 92 92 92 92 92 92 92 92 92 92 92 92 92 92 92 92 92 92 92 92 92 92 92 92 92 92 92 92 92 92 92 92 92 92 92 92 92 92 92 92 92 88 92 92 92 92 92 92 92 92 92 92 92 92 92
76 80 76 76 76 80 80 80 80 88 88 80 92 92 92 92 92 92 92 92 92 92 92 92 92 92 92 92 92 92 92 92 92 92 92 92 92 92 92 92 92 92 92 92 92 92 92 92 92 92 92 92 92 92 92 92 92 92 92 92 92 92 92 92 92 92 92 92 92
68 68 76 76 56 56 64 64 36 56 88 88 92 92 92 92 92 92 92 92 92 92 92 92 92 92 92 92 92 92 92 92 92 92 92 92 92 92 92 92 92 92 92 92 92 92 92 100 100 92 92 92 92 92 92 92 92 92 92 92 92 92 92 92 92 100 92 92 92
68 76 88 88 64 48 48 64 56 68 88 92 92 92 92 92 92 92 92 92 92 92 92 92 92 92 92 92 92 92 88 88 92 92 92 92 92 92 92 92 92 92 92 92 92 92 92 92 92 92 92 92 92 88 92 92 92 92 92 92 92 92 92 92 92 92 92 92 92
80 88 88 88 68 76 92 92 88 88 92 92 92 92 92 92 92 92 92 92 92 92 92 92 92 92 92 92 92 92 88 92 92 92 92 92 92 92 92 92 92 92 92 92 92 92 92 92 92 92 92 92 92 92 92 92 92 92 92 92 92 92 92 92 92 92 92 92 92
64 80 92 92 92 92 92 92 92 92 92 92 92 92 92 92 92 92 92 92 92 92 92 92 92 92 92 92 92 92 92 92 92 92 92 92 92 92 92 92 92 92 92 92 92 92 92 92 92 92 92 92 92 92 92 92 92 92 92 92 92 92 92 92 92 92 92 92 92
92 92 92 92 92 92 92 92 92 92 92 92 92 92 92 92 92 92 92 92 92 92 92 92 92 92 92 92 92 92 92 92 92 92 92 92 92 92 92 92 92 92 92 92 92 92 92 92 92 92 92 92 92 92 92 92 92 92 92 92 92 92 92 92 92 92 92 92 92
92 92 92 92 92 92 92 92 92 92 92 92 92 92 92 92 92 92 92 92 92 92 92 92 92 92 92 92 92 92 92 92 92 92 92 92 92 92 92 92 92 92 92 92 92 92 92 92 92 92 92 92 92 92 92 92 92 92 92 92 92 92 92 92 92 92 92 92 92
92 92 92 92 92 92 92 92 92 92 92 92 92 92 92 92 92 92 92 92 92 92 92 92 92 92 92 92 92 92 92 92 92 92 92 92 92 92 92 92 92 92 92 92 92 92 92 92 92 92 92 92 92 92 92 92 92 92 92 92 92 92 92 92 92 92 92 92 92
92 92 92 92 92 92 92 92 92 92 92 92 92 92 92 92 92 92 92 92 92 92 92 92 92 92 92 92 92 92 92 92 92 92 92 92 92 92 92 92 92 92 92 92 92 92 92 92 92 92 92 92 92 92 92 92 92 92 92 92 92 92 92 92 92 92 92 92 92
92 92 92 92 92 92 92 92 92 92 92 92 92 92 92 92 92 92 92 92 92 92 92 92 92 92 92 92 92 92 92 92 92 92 92 92 92 92 92 92 92 100 92 92 92 92 92 92 92 92 92 92 92 92 92 92 92 92 92 92 92 92 92 92 92 92 92 92 92
92 92 92 92 92 92 92 92 92 92 92 92 92 92 92 92 92 92 92 92 92 92 92 92 92 92 92 100 100 92 92 92 92 92 92 92 92 92 92 92 92 92 92 92 92 92 92 92 92 92 92 92 92 92 92 92 92 92 92 92 92 92 92 92 92 92 92 92 92
92 92 92 92 92 92 92 92 92 92 92 92 92 92 92 92 92 92 92 92 92 92 92 92 92 92 92 92 92 100 92 92 92 92 92 92 92 92 92 92 92 92 92 92 92 92 92 92 92 92 92 92 92 92 92 92 92 92 92 100 92 92 92 92 92 92 92 92 92
92 92 92 100 92 92 92 92 92 92 92 92 92 92 92 92 92 92 92 92 92 92 92 92 92 92 92 92 92 92 92 92 92 92 92 92 92 92 92 92 92 92 92 92 92 92 92 92 92 92 92 92 92 92 92 92 92 92 92 92 92 92 92 92 92 92 92 92 92